Location: Unspecified
(49.2170°N, 0.0000°E)
Time: 17:01:38
(UTC+00:00)

Transit 2A - Pass Details

Date: 22 June 2019
Orbit: 594 x 964 km, 66.7° (Epoch: 21 July)

Event Time Altitude Azimuth Distance (km) Brightness Sun altitude
Rises 07:24:24 0° 324° (NW) 3,536 9.1 30.8°
Reaches altitude 10° 07:27:17 10° 333° (NNW) 2,541 8.5 31.3°
Maximum altitude 07:32:34 33° 37° (NE) 1,348 8.1 32.1°
Drops below altitude 10° 07:37:22 10° 102° (ESE) 2,305 9.9 32.9°
Sets 07:39:51 0° 112° (ESE) 3,165 10.1 33.3°
